OPS 4682 DEB, 18269

Orbit data source: Space-Track

OPS 4682 DEB, 18269 is space debris in LEO originally from a launch on Sat, 03 Apr 1965 UTC launched from the Air Force Western Test Range (AFWTR). Debris objects in space refer to the collection of defunct objects orbiting the Earth. Examples of debris include non-operational satellites, rocket bodies, and fragments generated from explosions, collisions, or faulty payload assembly.

Loading next visibility...
Identifier
18269, 1965-027Y
Orbit
LEO
Country
Flag of USUS
Related business
Manufacturer
Unknown
Mission
Spacecraft
Bus & Motor
Unknown
Mass
Unknown
Launch date (UTC)
1965-04-03 (61 years ago)
Launch vehicle
Unknown
Launch site
Air Force Western Test Range (AFWTR)
Object type
Payload
Rocket body
Debris
Shape & HBR
Unknown shape, 0.1 m
Radar Cross Section
Small (<0.1 m²)

Expand to show TLE details & history
Last TLE update: 23 hours ago

TLE from 23 hours ago
0 OPS 4682 DEB
1 18269U 65027Y   25349.30142021  .00000272  00000-0  93398-3 0  9998
2 18269  90.2539   9.2411 0030248 305.5725  54.2576 12.95856572546078
Epoch: 2025-12-15T07:14Z
TLE epoch observation values (Epoch: 2025-12-15T07:14:02.706Z)
Latitude
-0.00002°
Longitude
176.52788°
Altitude
1,267.757 km
Speed
7.228 km/s
True Right ascension
00h 36m 57s
True Declination
0° 00' 00"
Sunlit
Object was in daylight at epoch
Visualization orbit readout
Latitude
Unknown
Longitude
Unknown
Altitude
Unknown
Speed
Unknown
Apparent Right ascension
Unknown
Apparent Declination
Unknown
Sunlit
N/A
Visualization observer readout
Local Sidereal Time
05:17:12
Azimuth
Unknown
Elevation
Unknown
Doppler factor
Unknown
Orbital elements
Apogee altitude
1,298.648 km
Perigee altitude
1,252.346 km
Semi-major axis
7,653.634 km
Eccentricity
0.00302
Inclination
90.2539°
RAAN
9.2411°
Arg. of periapsis
305.5725°
True anomaly
54.53955°
Mean anomaly
54.2576°
Eccentric anomaly
54.39851°
Mean motion
3.24147 °/min
Orbital period
111.06 mins
BSTAR
0.00093398
Loading maneuver chart data...
Computing Atmospheric mass density...
Loading historical data...
Loading historical data...
Loading historical data...
Loading historical data...
Loading historical data...
Loading historical data...
Loading historical data...

Documentation

Showing up to 5 results
|